contact:dominique.lefevre@mio.osupytheas.fr, maurice.libes@osupytheas.fr, didier.mallarino@osupytheas.fr
Project:EMSO http://www.emso-fr.org/EMSO-France
Depth: 2436.0 m
Title:EMSO Ligure Ouest : Data MII capteur AQUADOPP
Date,Latitude,Longitude,X_East,Y_North,Z_Up,Amplitude_X,Amplitude_Y,Amplitude_Z,Batterie,SoundSpeed,Heading,Pitch,Roll,Pressure,TIS,Speed,Direction
, degrees North, degrees East, m.s-1, m.s-1,m.s-1, 1, 1, 1, Volt, m.s-1, degree, degree, degree, dbar, degree_C, m.s-1, degree
2022-05-07T01:04:03,42.805,6.029,0.003,0.006,-0.001,101.0,105.0,100.0,13.4,1505.1,324.5,-0.8,1.8,2470.846,13.27,0.006,26.6
2022-05-07T01:07:03,42.805,6.029,0.021,-0.016,-0.012,102.0,103.0,101.0,13.4,1505.1,329.7,-0.8,1.8,2470.78,13.27,0.026,127.3
2022-05-07T01:10:03,42.805,6.029,0.059,0.02,0.052,103.0,103.0,100.0,13.4,1505.2,324.6,-0.7,1.8,2470.72,13.28,0.062,71.3
2022-05-07T01:13:03,42.805,6.029,0.05,-0.017,0.018,101.0,104.0,100.0,13.3,1505.2,324.4,-0.8,1.8,2470.777,13.28,0.052,108.8
2022-05-07T01:16:03,42.805,6.029,0.025,0.015,0.014,101.0,103.0,100.0,13.3,1505.2,322.7,-0.8,1.8,2470.805,13.28,0.029,59.0
2022-05-07T01:19:03,42.805,6.029,0.038,0.022,0.01,101.0,105.0,100.0,13.4,1505.2,331.8,-0.8,1.8,2470.831,13.28,0.043,59.9
2022-05-07T01:22:04,42.805,6.029,0.018,-0.019,-0.017,101.0,104.0,99.0,13.4,1505.2,332.0,-0.8,1.8,2470.818,13.28,0.026,136.5
2022-05-07T01:25:03,42.805,6.029,0.019,-0.001,0.017,100.0,104.0,100.0,13.4,1505.2,326.4,-0.7,1.8,2470.828,13.28,0.019,93.0
2022-05-07T01:28:03,42.805,6.029,0.053,-0.001,0.024,100.0,104.0,100.0,13.3,1505.2,324.7,-0.8,1.8,2470.82,13.28,0.053,91.1
2022-05-07T01:31:03,42.805,6.029,0.044,0.011,0.009,101.0,104.0,100.0,13.4,1505.2,331.0,-0.8,1.8,2470.817,13.28,0.045,76.0
2022-05-07T01:34:03,42.805,6.029,0.042,0.011,-0.008,101.0,104.0,100.0,13.4,1505.2,325.1,-0.7,1.8,2470.821,13.28,0.043,75.3
2022-05-07T01:37:03,42.805,6.029,0.052,-0.007,-0.007,101.0,103.0,100.0,13.4,1505.2,330.6,-0.8,1.8,2470.802,13.28,0.052,97.7
2022-05-07T01:40:03,42.805,6.029,0.039,0.001,0.038,102.0,104.0,101.0,13.4,1505.2,321.5,-0.7,1.8,2470.787,13.28,0.039,88.5
2022-05-07T01:43:03,42.805,6.029,0.021,-0.005,0.013,102.0,103.0,101.0,13.4,1505.2,328.5,-0.8,1.8,2470.756,13.28,0.021,103.4
2022-05-07T01:46:03,42.805,6.029,0.057,-0.029,0.032,100.0,104.0,100.0,13.4,1505.2,327.9,-0.8,1.8,2470.798,13.28,0.063,117.0
2022-05-07T01:49:03,42.805,6.029,0.037,0.01,0.031,102.0,103.0,100.0,13.4,1505.2,326.1,-0.7,1.8,2470.771,13.28,0.038,74.9
2022-05-07T01:52:03,42.805,6.029,0.045,-0.004,0.017,101.0,105.0,100.0,13.3,1505.2,329.4,-0.8,1.8,2470.814,13.28,0.045,95.1
2022-05-07T01:55:03,42.805,6.029,0.057,-0.016,0.002,102.0,104.0,100.0,13.4,1505.2,326.6,-0.8,1.8,2470.725,13.28,0.059,105.7
2022-05-07T01:58:03,42.805,6.029,0.017,0.003,0.008,101.0,103.0,100.0,13.4,1505.2,330.1,-0.7,1.8,2470.7,13.28,0.017,80.0
2022-05-07T02:04:03,42.805,6.029,0.032,-0.006,0.021,102.0,103.0,100.0,13.3,1505.2,326.6,-0.8,1.8,2470.793,13.28,0.032,100.6
2022-05-07T02:07:03,42.805,6.029,0.055,-0.014,0.003,102.0,105.0,100.0,13.3,1505.2,326.9,-0.8,1.8,2470.743,13.28,0.056,104.3
2022-05-07T02:10:03,42.805,6.029,0.016,0.014,0.048,105.0,105.0,100.0,13.4,1505.2,326.4,-0.7,1.8,2470.756,13.28,0.021,48.8
2022-05-07T02:13:03,42.805,6.029,0.024,-0.004,0.006,103.0,103.0,100.0,13.3,1505.2,327.4,-0.8,1.8,2470.743,13.28,0.024,99.5
2022-05-07T02:16:03,42.805,6.029,0.022,-0.001,-0.015,101.0,104.0,100.0,13.4,1505.2,327.4,-0.8,1.8,2470.764,13.28,0.022,92.6
2022-05-07T02:19:03,42.805,6.029,0.029,0.018,-0.034,102.0,103.0,100.0,13.4,1505.2,322.0,-0.7,1.8,2470.758,13.28,0.034,58.2
2022-05-07T02:22:03,42.805,6.029,0.0,0.001,0.008,102.0,102.0,100.0,13.4,1505.2,330.9,-0.8,1.8,2470.748,13.28,0.001,0.0
2022-05-07T02:25:03,42.805,6.029,0.017,-0.021,-0.029,102.0,104.0,100.0,13.3,1505.2,333.2,-0.8,1.8,2470.798,13.28,0.027,141.0
2022-05-07T02:28:03,42.805,6.029,0.048,0.008,0.063,104.0,104.0,100.0,13.4,1505.2,325.0,-0.7,1.8,2470.773,13.28,0.048,80.5
2022-05-07T02:31:03,42.805,6.029,0.054,-0.006,0.026,102.0,104.0,101.0,13.4,1505.2,327.7,-0.8,1.8,2470.783,13.28,0.054,96.3
2022-05-07T02:34:03,42.805,6.029,0.023,0.002,-0.003,100.0,106.0,99.0,13.3,1505.2,321.8,-0.8,1.8,2470.778,13.28,0.023,85.0
2022-05-07T02:37:03,42.805,6.029,0.025,0.028,0.031,102.0,104.0,100.0,13.4,1505.2,324.2,-0.8,1.8,2470.816,13.28,0.037,41.8
2022-05-07T02:40:03,42.805,6.029,0.031,-0.009,-0.018,101.0,103.0,101.0,13.3,1505.2,332.8,-0.7,1.8,2470.821,13.28,0.032,106.2
2022-05-07T02:43:03,42.805,6.029,0.042,0.007,0.002,103.0,104.0,99.0,13.4,1505.2,323.0,-0.8,1.8,2470.819,13.28,0.042,80.5
2022-05-07T02:46:03,42.805,6.029,0.047,0.011,0.024,101.0,104.0,100.0,13.4,1505.2,329.7,-0.7,1.8,2470.805,13.28,0.048,76.8
2022-05-07T02:49:03,42.805,6.029,0.019,0.003,-0.017,102.0,103.0,101.0,13.4,1505.2,333.4,-0.7,1.8,2470.773,13.28,0.019,81.0
2022-05-07T02:52:03,42.805,6.029,0.042,-0.004,0.011,102.0,105.0,100.0,13.3,1505.2,324.0,-0.8,1.8,2470.765,13.28,0.042,95.4
2022-05-07T02:55:03,42.805,6.029,0.025,0.019,0.015,101.0,105.0,101.0,13.4,1505.2,324.1,-0.8,1.8,2470.809,13.28,0.031,52.8
2022-05-07T02:58:03,42.805,6.029,0.044,-0.005,0.015,101.0,105.0,100.0,13.4,1505.2,325.9,-0.7,1.8,2470.984,13.28,0.044,96.5
2022-05-07T03:04:03,42.805,6.029,0.034,0.006,0.027,101.0,104.0,100.0,13.4,1505.2,325.4,-0.8,1.8,2470.589,13.28,0.034,80.0
2022-05-07T03:07:03,42.805,6.029,0.044,0.016,0.048,101.0,104.0,100.0,13.4,1505.2,331.2,-0.8,1.8,2470.739,13.28,0.046,70.0
2022-05-07T03:10:03,42.805,6.029,0.027,0.002,0.019,102.0,104.0,99.0,13.4,1505.2,333.0,-0.8,1.8,2470.742,13.28,0.027,85.8
2022-05-07T03:13:03,42.805,6.029,0.033,-0.001,0.031,101.0,106.0,100.0,13.4,1505.2,329.8,-0.8,1.8,2470.754,13.28,0.033,91.7
2022-05-07T03:16:03,42.805,6.029,0.064,-0.019,0.032,100.0,106.0,100.0,13.4,1505.2,330.8,-0.8,1.8,2470.824,13.28,0.066,106.5
2022-05-07T03:19:03,42.805,6.029,0.1,-0.006,0.074,99.0,105.0,101.0,13.4,1505.2,327.2,-0.7,1.8,2470.948,13.28,0.1,93.4
2022-05-07T03:22:03,42.805,6.029,0.035,-0.006,-0.02,102.0,103.0,101.0,13.4,1505.2,331.4,-0.8,1.8,2470.971,13.28,0.035,99.7
2022-05-07T03:25:03,42.805,6.029,0.037,-0.002,-0.009,102.0,103.0,100.0,13.3,1505.2,332.2,-0.7,1.8,2471.096,13.28,0.037,93.1
2022-05-07T03:28:03,42.805,6.029,0.017,0.0,0.03,102.0,104.0,101.0,13.4,1505.2,329.7,-0.8,1.8,2471.016,13.28,0.017,90.0
2022-05-07T03:31:03,42.805,6.029,0.027,0.013,0.017,102.0,104.0,100.0,13.4,1505.2,327.5,-0.7,1.8,2471.169,13.28,0.029,64.3
2022-05-07T03:34:03,42.805,6.029,0.06,-0.001,0.0,102.0,104.0,100.0,13.3,1505.2,330.5,-0.8,1.8,2470.932,13.28,0.06,91.0
2022-05-07T03:37:03,42.805,6.029,0.063,-0.005,0.038,101.0,105.0,101.0,13.4,1505.2,327.8,-0.7,1.8,2470.801,13.28,0.063,94.5
2022-05-07T03:40:03,42.805,6.029,0.069,-0.021,0.006,100.0,103.0,102.0,13.3,1505.2,324.7,-0.7,1.8,2470.878,13.28,0.072,106.9
2022-05-07T03:43:03,42.805,6.029,0.032,-0.005,0.012,102.0,104.0,100.0,13.4,1505.2,321.7,-0.8,1.8,2470.758,13.28,0.032,98.9
2022-05-07T03:46:03,42.805,6.029,0.065,-0.024,0.024,101.0,105.0,100.0,13.4,1505.2,332.8,-0.7,1.8,2470.666,13.28,0.069,110.3
2022-05-07T03:49:03,42.805,6.029,0.03,0.012,0.03,101.0,104.0,100.0,13.4,1505.2,323.4,-0.8,1.8,2470.601,13.28,0.032,68.2
2022-05-07T03:52:03,42.805,6.029,0.05,0.002,0.023,102.0,104.0,100.0,13.4,1505.2,328.9,-0.7,1.8,2470.554,13.28,0.05,87.7
2022-05-07T03:55:03,42.805,6.029,0.02,-0.013,0.0,103.0,105.0,100.0,13.3,1505.2,325.5,-0.7,1.8,2470.538,13.28,0.023,123.0
2022-05-07T03:58:03,42.805,6.029,0.003,0.002,0.002,101.0,106.0,100.0,13.4,1505.2,329.4,-0.8,1.8,2470.512,13.28,0.003,56.3
2022-05-07T04:04:03,42.805,6.029,0.059,-0.015,0.008,101.0,104.0,100.0,13.3,1505.2,322.1,-0.8,1.8,2470.498,13.28,0.06,104.3
2022-05-07T04:07:03,42.805,6.029,0.046,-0.01,0.016,101.0,106.0,100.0,13.3,1505.2,332.0,-0.8,1.8,2470.482,13.28,0.047,102.3
2022-05-07T04:10:03,42.805,6.029,0.024,-0.001,0.007,101.0,105.0,99.0,13.4,1505.2,323.3,-0.7,1.8,2470.454,13.28,0.024,92.4
2022-05-07T04:13:03,42.805,6.029,0.041,-0.008,0.013,100.0,106.0,100.0,13.4,1505.2,325.6,-0.8,1.8,2470.461,13.28,0.041,101.0
2022-05-07T04:16:03,42.805,6.029,0.019,-0.014,0.017,103.0,107.0,99.0,13.3,1505.2,331.3,-0.7,1.8,2470.416,13.28,0.023,126.4
2022-05-07T04:19:03,42.805,6.029,0.038,0.0,0.03,100.0,104.0,101.0,13.4,1505.2,321.2,-0.8,1.8,2470.479,13.28,0.038,90.0
2022-05-07T04:22:03,42.805,6.029,0.021,-0.008,0.027,102.0,103.0,101.0,13.3,1505.2,323.0,-0.7,1.8,2470.757,13.28,0.022,110.9
2022-05-07T04:25:03,42.805,6.029,0.03,0.024,0.025,102.0,103.0,101.0,13.4,1505.2,323.9,-0.8,1.8,2470.68,13.28,0.038,51.3
2022-05-07T04:28:03,42.805,6.029,0.013,-0.007,0.037,101.0,105.0,99.0,13.4,1505.2,331.8,-0.7,1.8,2470.504,13.28,0.014,118.3
2022-05-07T04:31:03,42.805,6.029,0.033,-0.004,0.024,100.0,104.0,101.0,13.4,1505.2,327.2,-0.7,1.8,2470.338,13.28,0.033,96.9
2022-05-07T04:34:03,42.805,6.029,0.046,0.011,0.072,101.0,106.0,100.0,13.4,1505.2,325.1,-0.8,1.8,2470.138,13.28,0.047,76.6
2022-05-07T04:37:03,42.805,6.029,0.017,-0.005,0.012,102.0,104.0,100.0,13.4,1505.2,329.8,-0.8,1.8,2469.975,13.28,0.017,106.4
2022-05-07T04:40:03,42.805,6.029,0.034,-0.004,0.029,102.0,104.0,101.0,13.3,1505.2,332.6,-0.8,1.8,2469.925,13.28,0.034,96.7
2022-05-07T04:43:03,42.805,6.029,0.029,0.001,-0.015,100.0,103.0,100.0,13.4,1505.2,329.1,-0.7,1.8,2469.88,13.28,0.029,88.0
2022-05-07T04:46:03,42.805,6.029,0.053,-0.004,0.015,102.0,104.0,99.0,13.4,1505.2,329.1,-0.7,1.8,2469.845,13.28,0.053,94.3
2022-05-07T04:49:03,42.805,6.029,0.026,0.004,-0.024,102.0,102.0,102.0,13.4,1505.2,327.2,-0.8,1.8,2469.884,13.28,0.026,81.3
2022-05-07T04:52:03,42.805,6.029,0.049,-0.004,-0.019,102.0,105.0,100.0,13.4,1505.2,328.6,-0.7,1.8,2469.923,13.28,0.049,94.7
2022-05-07T04:55:03,42.805,6.029,0.038,0.008,0.035,102.0,104.0,100.0,13.4,1505.2,328.8,-0.8,1.8,2469.877,13.28,0.038,78.1
2022-05-07T04:58:03,42.805,6.029,0.037,-0.013,0.0,102.0,105.0,100.0,13.3,1505.2,331.2,-0.7,1.8,2469.801,13.28,0.039,109.4
2022-05-07T05:04:03,42.805,6.029,0.019,0.006,0.009,101.0,104.0,100.0,13.4,1505.2,328.1,-0.8,1.8,2469.855,13.28,0.019,72.5
2022-05-07T05:07:03,42.805,6.029,0.009,-0.02,-0.017,101.0,103.0,101.0,13.3,1505.2,331.4,-0.8,1.8,2469.909,13.28,0.021,155.8
2022-05-07T05:10:03,42.805,6.029,0.032,-0.012,0.043,101.0,104.0,101.0,13.4,1505.2,329.5,-0.8,1.8,2469.922,13.28,0.034,110.6
2022-05-07T05:13:03,42.805,6.029,0.05,-0.006,0.026,101.0,105.0,100.0,13.3,1505.2,325.7,-0.8,1.8,2469.763,13.28,0.05,96.8
2022-05-07T05:16:03,42.805,6.029,0.05,0.002,0.029,101.0,103.0,100.0,13.4,1505.2,329.5,-0.8,1.8,2469.777,13.28,0.05,87.7
2022-05-07T05:19:03,42.805,6.029,0.044,0.009,0.047,100.0,105.0,101.0,13.4,1505.2,327.1,-0.8,1.8,2469.833,13.28,0.044,78.4
2022-05-07T05:22:03,42.805,6.029,0.038,-0.02,0.009,100.0,104.0,100.0,13.4,1505.2,325.0,-0.7,1.8,2469.821,13.28,0.042,117.8
2022-05-07T05:25:03,42.805,6.029,0.056,-0.017,0.001,101.0,104.0,99.0,13.4,1505.2,332.6,-0.7,1.8,2469.859,13.28,0.058,106.9
2022-05-07T05:28:03,42.805,6.029,0.028,-0.012,-0.026,102.0,103.0,101.0,13.4,1505.2,328.8,-0.7,1.8,2469.807,13.28,0.03,113.2
2022-05-07T05:31:03,42.805,6.029,0.006,-0.011,-0.012,101.0,104.0,100.0,13.3,1505.2,325.5,-0.8,1.8,2469.807,13.28,0.012,151.4
2022-05-07T05:34:03,42.805,6.029,0.031,0.002,0.012,102.0,104.0,100.0,13.4,1505.2,331.9,-0.8,1.8,2469.898,13.28,0.031,86.3
2022-05-07T05:37:03,42.805,6.029,0.044,0.014,0.044,100.0,104.0,100.0,13.4,1505.2,321.4,-0.8,1.8,2469.905,13.28,0.046,72.4
2022-05-07T05:40:03,42.805,6.029,0.014,-0.008,-0.011,100.0,104.0,101.0,13.4,1505.2,323.2,-0.7,1.8,2469.958,13.28,0.016,119.7
2022-05-07T05:43:03,42.805,6.029,0.026,0.011,0.025,101.0,104.0,100.0,13.3,1505.2,330.4,-0.8,1.8,2469.938,13.28,0.028,67.1
2022-05-07T05:46:03,42.805,6.029,0.008,0.002,0.009,101.0,105.0,100.0,13.4,1505.2,331.4,-0.8,1.8,2469.712,13.28,0.008,76.0
2022-05-07T05:49:03,42.805,6.029,0.042,-0.009,0.021,101.0,106.0,100.0,13.4,1505.2,328.0,-0.7,1.8,2469.627,13.28,0.042,102.1
2022-05-07T05:52:03,42.805,6.029,0.02,0.01,0.0,100.0,105.0,101.0,13.4,1505.2,325.9,-0.7,1.8,2469.551,13.28,0.022,63.4
2022-05-07T05:55:03,42.805,6.029,0.0,-0.001,0.041,100.0,106.0,101.0,13.3,1505.2,331.9,-0.8,1.8,2469.578,13.28,0.001,180.0
2022-05-07T05:58:03,42.805,6.029,0.037,0.013,0.05,101.0,104.0,100.0,13.4,1505.2,323.5,-0.8,1.8,2469.621,13.28,0.039,70.6
2022-05-07T06:04:03,42.805,6.029,0.032,-0.007,0.043,100.0,105.0,101.0,13.4,1505.2,331.7,-0.8,1.8,2469.747,13.28,0.032,102.3
2022-05-07T06:07:03,42.805,6.029,0.023,0.01,0.026,101.0,105.0,100.0,13.4,1505.2,325.7,-0.8,1.8,2469.734,13.28,0.025,66.5
2022-05-07T06:10:03,42.805,6.029,0.053,0.014,0.046,100.0,104.0,101.0,13.4,1505.2,329.5,-0.7,1.8,2469.811,13.28,0.054,75.2
2022-05-07T06:13:03,42.805,6.029,0.012,0.015,0.015,103.0,104.0,100.0,13.3,1505.2,327.1,-0.8,1.8,2469.834,13.28,0.019,38.7
2022-05-07T06:16:03,42.805,6.029,0.038,0.012,0.038,100.0,105.0,100.0,13.4,1505.2,329.5,-0.8,1.8,2469.891,13.28,0.039,72.5
2022-05-07T06:19:03,42.805,6.029,0.039,0.013,0.041,100.0,105.0,100.0,13.4,1505.2,321.4,-0.8,1.8,2469.87,13.28,0.041,71.6
2022-05-07T06:22:03,42.805,6.029,0.027,0.0,0.004,100.0,106.0,99.0,13.3,1505.2,326.0,-0.7,1.8,2469.928,13.28,0.026,90.0
2022-05-07T06:25:03,42.805,6.029,0.017,0.003,0.016,102.0,104.0,100.0,13.4,1505.2,332.2,-0.8,1.9,2469.91,13.28,0.017,80.0
2022-05-07T06:28:03,42.805,6.029,0.039,0.008,0.049,100.0,105.0,100.0,13.3,1505.2,325.0,-0.8,1.8,2469.961,13.28,0.039,78.4
2022-05-07T06:31:03,42.805,6.029,0.029,0.007,0.029,101.0,105.0,100.0,13.4,1505.2,328.6,-0.7,1.8,2469.955,13.28,0.029,76.4
2022-05-07T06:34:03,42.805,6.029,0.018,0.024,-0.007,102.0,103.0,100.0,13.4,1505.2,327.0,-0.8,1.8,2469.915,13.28,0.03,36.9
2022-05-07T06:37:03,42.805,6.029,0.062,0.004,0.026,100.0,106.0,101.0,13.3,1505.2,323.2,-0.8,1.8,2469.965,13.28,0.062,86.3
2022-05-07T06:40:03,42.805,6.029,0.059,0.003,0.071,101.0,105.0,101.0,13.4,1505.2,323.5,-0.7,1.8,2469.934,13.28,0.059,87.1
2022-05-07T06:43:03,42.805,6.029,0.023,-0.006,-0.02,101.0,104.0,100.0,13.4,1505.2,328.5,-0.7,1.9,2469.943,13.28,0.023,104.6
2022-05-07T06:46:03,42.805,6.029,0.034,-0.037,0.013,100.0,106.0,100.0,13.3,1505.2,327.8,-0.8,1.8,2469.908,13.28,0.05,137.4
2022-05-07T06:49:03,42.805,6.029,0.008,0.012,-0.005,101.0,104.0,101.0,13.4,1505.2,324.4,-0.7,1.8,2469.907,13.28,0.014,33.7
2022-05-07T06:52:03,42.805,6.029,0.036,-0.008,0.026,101.0,104.0,101.0,13.4,1505.2,325.2,-0.8,1.8,2469.934,13.28,0.036,102.5
2022-05-07T06:55:03,42.805,6.029,0.038,-0.01,0.027,101.0,103.0,100.0,13.3,1505.2,324.9,-0.8,1.9,2469.918,13.28,0.039,104.7
2022-05-07T06:58:03,42.805,6.029,0.035,0.01,0.018,100.0,105.0,102.0,13.4,1505.2,323.8,-0.8,1.8,2469.901,13.28,0.036,74.1
2022-05-07T07:04:03,42.805,6.029,0.042,-0.002,0.015,101.0,106.0,99.0,13.4,1505.2,329.8,-0.7,1.8,2469.899,13.28,0.042,92.7
2022-05-07T07:07:03,42.805,6.029,0.011,0.016,0.023,101.0,103.0,101.0,13.4,1505.2,322.1,-0.8,1.8,2469.894,13.28,0.019,34.5
2022-05-07T07:10:03,42.805,6.029,0.053,-0.006,0.05,101.0,106.0,100.0,13.4,1505.2,321.3,-0.7,1.8,2469.913,13.28,0.053,96.5
2022-05-07T07:13:03,42.805,6.029,0.022,-0.02,-0.014,103.0,103.0,100.0,13.4,1505.2,330.9,-0.8,1.8,2469.942,13.28,0.029,132.3
2022-05-07T07:16:03,42.805,6.029,0.054,-0.012,-0.009,102.0,103.0,101.0,13.4,1505.2,325.2,-0.8,1.8,2469.971,13.28,0.055,102.5
2022-05-07T07:19:03,42.805,6.029,0.046,0.01,0.028,102.0,105.0,100.0,13.3,1505.2,322.4,-0.7,1.8,2469.982,13.28,0.047,77.7
2022-05-07T07:22:03,42.805,6.029,0.041,-0.016,0.006,101.0,105.0,101.0,13.4,1505.2,328.4,-0.8,1.8,2469.991,13.28,0.044,111.3
2022-05-07T07:25:03,42.805,6.029,0.003,0.008,0.015,101.0,105.0,100.0,13.4,1505.2,327.2,-0.8,1.8,2470.042,13.28,0.008,20.6
2022-05-07T07:28:03,42.805,6.029,0.021,0.021,0.021,102.0,104.0,100.0,13.4,1505.2,322.8,-0.7,1.8,2470.056,13.28,0.029,45.0
2022-05-07T07:31:03,42.805,6.029,0.058,-0.023,0.036,103.0,105.0,101.0,13.3,1505.2,327.4,-0.8,1.8,2470.082,13.28,0.062,111.6
2022-05-07T07:34:03,42.805,6.029,0.024,-0.002,0.03,102.0,105.0,100.0,13.3,1505.2,331.8,-0.7,1.8,2470.069,13.28,0.024,94.8
2022-05-07T07:37:03,42.805,6.029,0.019,0.005,-0.005,101.0,105.0,100.0,13.4,1505.2,330.2,-0.7,1.8,2470.106,13.28,0.019,75.3
2022-05-07T07:40:03,42.805,6.029,0.019,-0.005,0.012,101.0,106.0,101.0,13.4,1505.2,328.8,-0.7,1.8,2470.112,13.28,0.019,104.7
2022-05-07T07:43:03,42.805,6.029,0.058,-0.003,0.039,101.0,106.0,101.0,13.4,1505.2,331.6,-0.8,1.8,2470.13,13.28,0.058,93.0
2022-05-07T07:46:03,42.805,6.029,0.012,0.006,0.018,100.0,104.0,101.0,13.4,1505.2,326.4,-0.8,1.8,2470.134,13.28,0.013,63.4
2022-05-07T07:49:03,42.805,6.029,0.039,-0.027,-0.025,101.0,105.0,101.0,13.3,1505.2,329.3,-0.7,1.8,2470.154,13.28,0.047,124.7
2022-05-07T07:52:03,42.805,6.029,0.02,-0.001,-0.003,101.0,106.0,100.0,13.4,1505.2,328.8,-0.8,1.8,2470.193,13.28,0.02,92.9
2022-05-07T07:55:03,42.805,6.029,0.036,-0.017,-0.009,101.0,105.0,100.0,13.3,1505.2,330.1,-0.7,1.8,2470.177,13.28,0.039,115.3
2022-05-07T07:58:03,42.805,6.029,0.018,-0.017,-0.026,102.0,104.0,100.0,13.4,1505.2,330.0,-0.7,1.9,2470.183,13.28,0.024,133.4
2022-05-07T08:04:03,42.805,6.029,0.04,-0.002,0.021,102.0,105.0,100.0,13.4,1505.2,327.9,-0.8,1.8,2470.209,13.28,0.04,92.9
2022-05-07T08:07:03,42.805,6.029,0.032,0.0,0.037,101.0,104.0,100.0,13.4,1505.2,332.0,-0.8,1.8,2470.165,13.28,0.032,90.0
2022-05-07T08:10:03,42.805,6.029,0.017,-0.007,-0.004,101.0,105.0,100.0,13.4,1505.2,328.0,-0.8,1.8,2470.158,13.28,0.018,112.4
2022-05-07T08:13:03,42.805,6.029,0.05,-0.019,0.01,101.0,104.0,101.0,13.4,1505.2,325.3,-0.7,1.8,2470.175,13.28,0.053,110.8
2022-05-07T08:16:03,42.805,6.029,0.036,-0.031,-0.009,102.0,104.0,101.0,13.4,1505.2,329.1,-0.8,1.8,2470.202,13.28,0.047,130.7
2022-05-07T08:19:03,42.805,6.029,0.004,0.004,0.0,101.0,106.0,101.0,13.4,1505.2,324.3,-0.7,1.8,2470.19,13.28,0.005,45.0
2022-05-07T08:22:03,42.805,6.029,0.049,0.01,0.048,101.0,107.0,100.0,13.3,1505.2,330.1,-0.8,1.8,2470.166,13.28,0.05,78.5
2022-05-07T08:25:03,42.805,6.029,0.041,-0.013,0.005,100.0,106.0,100.0,13.4,1505.2,324.4,-0.7,1.8,2470.196,13.28,0.043,107.6
2022-05-07T08:28:03,42.805,6.029,0.0,0.0,-0.003,101.0,106.0,100.0,13.3,1505.2,322.5,-0.8,1.8,2470.183,13.28,0.0,0.0
2022-05-07T08:31:03,42.805,6.029,0.047,-0.013,0.016,101.0,105.0,101.0,13.4,1505.2,332.0,-0.8,1.8,2470.166,13.28,0.048,105.5
2022-05-07T08:34:03,42.805,6.029,0.036,0.017,0.044,101.0,106.0,100.0,13.4,1505.2,324.7,-0.8,1.8,2470.195,13.28,0.039,64.7
2022-05-07T08:37:03,42.805,6.029,0.052,0.0,0.021,102.0,104.0,101.0,13.3,1505.2,325.0,-0.7,1.8,2470.181,13.28,0.052,90.0
2022-05-07T08:40:03,42.805,6.029,0.045,-0.008,0.044,102.0,107.0,101.0,13.4,1505.2,323.6,-0.8,1.8,2470.244,13.28,0.045,100.1
2022-05-07T08:43:03,42.805,6.029,0.059,-0.023,-0.007,102.0,107.0,101.0,13.3,1505.2,330.5,-0.7,1.8,2470.27,13.28,0.063,111.3
2022-05-07T08:46:03,42.805,6.029,0.022,0.016,0.014,102.0,105.0,101.0,13.4,1505.2,321.4,-0.8,1.8,2470.31,13.28,0.027,54.0
2022-05-07T08:49:03,42.805,6.029,0.042,-0.009,0.0,103.0,105.0,99.0,13.4,1505.2,326.9,-0.8,1.8,2470.301,13.28,0.042,102.1
2022-05-07T08:52:03,42.805,6.029,0.064,0.0,0.016,101.0,106.0,101.0,13.4,1505.2,328.9,-0.7,1.8,2470.361,13.28,0.063,90.0
2022-05-07T08:55:03,42.805,6.029,0.039,0.01,0.02,101.0,106.0,100.0,13.3,1505.2,329.6,-0.8,1.8,2470.355,13.28,0.04,75.6
2022-05-07T08:58:03,42.805,6.029,0.035,0.0,0.019,101.0,107.0,100.0,13.4,1505.2,331.6,-0.8,1.8,2470.305,13.28,0.035,90.0
2022-05-07T09:01:03,42.805,6.029,0.046,-0.003,-0.003,99.0,108.0,100.0,13.4,1505.2,325.5,-0.7,1.8,2470.369,13.28,0.046,93.7
2022-05-07T09:04:03,42.805,6.029,0.04,0.012,-0.004,101.0,106.0,100.0,13.3,1505.2,329.6,-0.8,1.8,2470.342,13.28,0.041,73.3
2022-05-07T09:07:03,42.805,6.029,0.025,0.002,0.054,101.0,105.0,100.0,13.4,1505.2,330.4,-0.8,1.9,2470.346,13.28,0.025,85.4
2022-05-07T09:10:03,42.805,6.029,0.026,0.007,-0.028,101.0,107.0,100.0,13.3,1505.2,322.4,-0.8,1.8,2470.381,13.28,0.026,74.9
2022-05-07T09:13:03,42.805,6.029,0.025,-0.001,0.018,102.0,105.0,101.0,13.3,1505.2,321.9,-0.7,1.8,2470.38,13.28,0.025,92.3
2022-05-07T09:16:03,42.805,6.029,0.043,-0.008,0.025,102.0,106.0,100.0,13.4,1505.2,331.2,-0.7,1.8,2470.426,13.28,0.043,100.5
2022-05-07T09:19:03,42.805,6.029,-0.004,0.012,0.0,102.0,108.0,100.0,13.3,1505.2,325.6,-0.8,1.8,2470.39,13.28,0.012,341.6
2022-05-07T09:22:03,42.805,6.029,0.02,-0.016,-0.055,100.0,107.0,100.0,13.3,1505.2,323.2,-0.8,1.8,2470.415,13.28,0.025,128.7
2022-05-07T09:25:03,42.805,6.029,0.05,-0.014,0.023,102.0,107.0,100.0,13.3,1505.2,332.2,-0.7,1.8,2470.391,13.28,0.051,105.6
2022-05-07T09:28:03,42.805,6.029,0.061,0.015,0.058,101.0,106.0,100.0,13.4,1505.2,323.0,-0.8,1.8,2470.419,13.28,0.062,76.2
2022-05-07T09:31:03,42.805,6.029,0.059,0.004,0.014,102.0,108.0,100.0,13.4,1505.2,325.7,-0.8,1.8,2470.429,13.28,0.059,86.1
2022-05-07T09:34:03,42.805,6.029,0.022,-0.01,0.016,101.0,106.0,100.0,13.3,1505.2,327.8,-0.8,1.8,2470.415,13.28,0.024,114.4
2022-05-07T09:37:03,42.805,6.029,0.043,-0.003,0.038,100.0,105.0,101.0,13.4,1505.2,328.5,-0.7,1.8,2470.419,13.28,0.043,94.0
2022-05-07T09:40:03,42.805,6.029,0.022,-0.013,-0.018,102.0,104.0,100.0,13.4,1505.2,325.8,-0.7,1.8,2470.367,13.28,0.025,120.6
2022-05-07T09:43:03,42.805,6.029,0.051,-0.013,0.004,99.0,107.0,101.0,13.3,1505.2,330.7,-0.8,1.8,2470.458,13.28,0.052,104.3
2022-05-07T09:46:03,42.805,6.029,0.023,0.005,-0.003,101.0,107.0,101.0,13.4,1505.2,326.6,-0.7,1.8,2470.446,13.28,0.023,77.7
2022-05-07T09:49:03,42.805,6.029,0.066,-0.016,0.034,101.0,106.0,100.0,13.4,1505.2,328.9,-0.8,1.8,2470.445,13.28,0.067,103.6
2022-05-07T09:52:03,42.805,6.029,0.033,0.001,0.017,101.0,107.0,101.0,13.4,1505.2,322.7,-0.7,1.8,2470.465,13.28,0.033,88.3
2022-05-07T09:55:03,42.805,6.029,0.007,0.001,0.007,102.0,106.0,100.0,13.4,1505.2,326.6,-0.8,1.8,2470.452,13.28,0.007,81.9
2022-05-07T09:58:03,42.805,6.029,0.012,-0.002,-0.011,103.0,105.0,101.0,13.3,1505.2,328.5,-0.8,1.8,2470.449,13.28,0.012,99.5
2022-05-07T10:04:03,42.805,6.029,0.034,-0.015,0.001,100.0,106.0,101.0,13.4,1505.2,330.0,-0.8,1.8,2470.472,13.28,0.037,113.8
2022-05-07T10:07:03,42.805,6.029,0.017,0.0,-0.012,103.0,107.0,100.0,13.3,1505.2,326.4,-0.7,1.8,2470.447,13.28,0.017,90.0
2022-05-07T10:10:03,42.805,6.029,0.009,0.019,0.024,103.0,104.0,101.0,13.3,1505.2,326.0,-0.7,1.8,2470.42,13.28,0.021,25.3
2022-05-07T10:13:03,42.805,6.029,0.057,0.004,-0.003,100.0,107.0,101.0,13.4,1505.2,330.6,-0.7,1.8,2470.436,13.28,0.057,86.0
2022-05-07T10:16:03,42.805,6.029,0.09,-0.008,0.04,102.0,105.0,101.0,13.4,1505.2,325.4,-0.7,1.8,2470.392,13.28,0.09,95.1
2022-05-07T10:19:03,42.805,6.029,0.051,0.003,0.003,101.0,104.0,101.0,13.3,1505.2,325.7,-0.7,1.8,2470.408,13.28,0.051,86.6
2022-05-07T10:22:03,42.805,6.029,0.043,-0.004,0.014,102.0,105.0,100.0,13.4,1505.2,321.5,-0.8,1.8,2470.435,13.28,0.043,95.3
2022-05-07T10:25:03,42.805,6.029,0.067,-0.004,0.037,101.0,107.0,100.0,13.3,1505.2,333.0,-0.8,1.8,2470.415,13.28,0.067,93.4
2022-05-07T10:28:03,42.805,6.029,0.038,-0.015,0.011,101.0,106.0,102.0,13.3,1505.2,330.1,-0.8,1.8,2470.349,13.28,0.04,111.5
2022-05-07T10:31:03,42.805,6.029,0.09,-0.007,0.029,101.0,107.0,100.0,13.4,1505.2,330.4,-0.8,1.8,2470.416,13.28,0.09,94.4
2022-05-07T10:34:03,42.805,6.029,0.044,0.004,-0.006,101.0,106.0,101.0,13.4,1505.2,324.4,-0.7,1.8,2470.367,13.28,0.044,84.8
2022-05-07T10:37:03,42.805,6.029,0.024,-0.016,-0.01,100.0,105.0,100.0,13.4,1505.2,327.2,-0.7,1.8,2470.317,13.28,0.028,123.7
2022-05-07T10:40:03,42.805,6.029,0.049,0.006,0.041,101.0,105.0,101.0,13.4,1505.2,332.0,-0.8,1.8,2470.373,13.28,0.049,83.0
2022-05-07T10:43:03,42.805,6.029,0.044,-0.006,0.034,102.0,107.0,100.0,13.4,1505.2,321.5,-0.8,1.8,2470.389,13.28,0.044,97.8
2022-05-07T10:46:03,42.805,6.029,0.048,-0.017,0.001,102.0,105.0,101.0,13.4,1505.2,321.5,-0.8,1.8,2470.389,13.28,0.05,109.5
2022-05-07T10:49:03,42.805,6.029,0.055,-0.014,-0.013,102.0,107.0,100.0,13.3,1505.2,331.3,-0.8,1.8,2470.383,13.28,0.056,104.3
2022-05-07T10:52:03,42.805,6.029,0.049,0.0,0.019,101.0,105.0,100.0,13.4,1505.2,331.8,-0.8,1.8,2470.325,13.28,0.049,90.0
2022-05-07T10:55:03,42.805,6.029,-0.013,-0.007,-0.025,100.0,107.0,101.0,13.4,1505.2,325.2,-0.8,1.8,2470.392,13.28,0.014,241.7
2022-05-07T10:58:03,42.805,6.029,0.04,0.011,0.032,102.0,105.0,101.0,13.3,1505.2,323.9,-0.8,1.8,2470.322,13.28,0.041,74.6
2022-05-07T11:04:03,42.805,6.029,0.06,0.001,0.029,101.0,104.0,100.0,13.4,1505.2,328.1,-0.8,1.8,2470.422,13.28,0.06,89.0